FW8758 Weather Reports


Display with metric or nautical units.
time (UTC)temp
F
wind
direction
speed
MPH
gust
MPH
rain 1hr
in
rain 24hr
in
rain mn
in
humidity
%
barometer
mb
20260510224530 54 260 1.0 10.0 0.00 0.02 0.02 57 1012.7
20260510223030 55 266 4.0 12.0 0.00 0.02 0.02 56 1012.0
20260510221533 55 281 6.0 13.0 0.00 0.02 0.02 52 1011.6
20260510220030 55 229 6.0 17.0 0.00 0.02 0.02 53 1011.4
20260510214534 54 242 4.0 13.0 0.00 0.02 0.02 59 1011.4
20260510213032 52 254 4.0 16.0 0.00 0.02 0.02 63 1011.5
20260510211532 54 261 8.0 26.0 0.00 0.02 0.02 54 1011.3
20260510210031 58 273 8.0 18.0 0.00 0.02 0.02 44 1010.4
20260510204530 59 244 9.0 22.0 0.00 0.02 0.02 39 1010.2
20260510203031 60 246 7.0 20.0 0.00 0.02 0.02 38 1009.9
20260510201538 60 201 7.0 24.0 0.00 0.02 0.02 38 1009.6
20260510200030 61 188 6.0 24.0 0.00 0.02 0.02 39 1009.7
20260510194530 60 274 9.0 30.0 0.00 0.02 0.02 39 1009.6
20260510193032 60 269 8.0 26.0 0.00 0.02 0.02 37 1009.6
20260510191531 60 248 9.0 23.0 0.00 0.02 0.02 39 1009.5
20260510190035 60 229 9.0 19.0 0.00 0.02 0.02 38 1009.4
20260510184536 61 176 8.0 20.0 0.00 0.02 0.02 38 1009.4
20260510183032 61 205 5.0 22.0 0.00 0.02 0.02 40 1009.5
20260510181535 61 184 8.0 19.0 0.00 0.02 0.02 38 1009.1
20260510180034 60 154 8.0 24.0 0.00 0.02 0.02 40 1009.1
20260510174531 60 215 8.0 21.0 0.00 0.02 0.02 40 1009.1
20260510173032 60 267 7.0 16.0 0.00 0.02 0.02 40 1009.0
20260510171537 60 212 9.0 22.0 0.00 0.02 0.02 40 1008.9
20260510170036 59 304 10.0 22.0 0.00 0.02 0.02 42 1008.9
20260510164535 59 242 8.0 19.0 0.00 0.02 0.02 42 1009.0
20260510163032 59 242 8.0 16.0 0.00 0.02 0.02 44 1009.0
20260510161536 58 264 8.0 21.0 0.00 0.02 0.02 45 1009.0
20260510160037 59 209 8.0 23.0 0.00 0.02 0.02 45 1009.0
20260510154536 58 243 6.0 17.0 0.00 0.02 0.02 46 1008.8
20260510153035 58 262 9.0 20.0 0.00 0.02 0.02 49 1008.9
20260510151533 58 184 7.0 19.0 0.00 0.02 0.02 50 1008.7
20260510150030 57 244 7.0 18.0 0.00 0.02 0.02 55 1008.8
20260510144532 57 161 7.0 23.0 0.00 0.02 0.02 55 1008.6
20260510143036 57 217 6.0 19.0 0.00 0.02 0.02 62 1008.7
20260510141533 56 198 7.0 16.0 0.00 0.02 0.02 59 1008.6
20260510140031 56 219 7.0 17.0 0.00 0.02 0.02 58 1008.4
20260510134531 55 176 7.0 21.0 0.00 0.02 0.02 60 1008.5
20260510133031 54 209 7.0 17.0 0.00 0.02 0.02 64 1008.3
20260510131533 55 275 5.0 17.0 0.00 0.02 0.02 67 1008.1
20260510130034 54 223 5.0 18.0 0.00 0.02 0.02 73 1007.9
20260510124536 53 226 8.0 18.0 0.00 0.02 0.02 74 1007.8
20260510123032 54 239 6.0 20.0 0.00 0.02 0.02 75 1007.6
20260510121530 53 250 6.0 15.0 0.00 0.02 0.02 77 1007.5
20260510120034 53 188 5.0 11.0 0.00 0.02 0.02 79 1007.3
20260510114532 52 222 3.0 14.0 0.00 0.02 0.02 80 1007.2
20260510113037 52 220 5.0 11.0 0.00 0.02 0.02 80 1007.2
20260510111536 53 167 3.0 14.0 0.00 0.02 0.02 80 1006.8
20260510110037 53 181 3.0 9.0 0.00 0.02 0.02 80 1006.8
20260510104532 52 221 4.0 11.0 0.00 0.02 0.02 81 1006.6
20260510103035 52 197 4.0 11.0 0.00 0.02 0.02 82 1006.5
20260510101533 52 145 4.0 10.0 0.00 0.02 0.02 82 1006.4
20260510100032 51 188 4.0 16.0 0.00 0.02 0.02 82 1006.1
20260510094529 51 155 3.0 9.0 0.00 0.02 0.02 83 1005.9
20260510093055 51 261 3.0 11.0 0.00 0.02 0.02 82 1005.8
20260510091530 50 186 6.0 12.0 0.00 0.02 0.02 82 1005.7
20260510090043 50 105 4.0 14.0 0.00 0.02 0.02 82 1005.6
20260510084537 50 151 3.0 12.0 0.00 0.02 0.02 82 1005.6
20260510083036 50 151 5.0 11.0 0.00 0.02 0.02 82 1005.5
20260510081535 50 146 4.0 12.0 0.00 0.02 0.02 83 1005.4
20260510080037 49 141 3.0 15.0 0.02 0.02 0.02 83 1005.5
20260510074543 49 141 3.0 11.0 0.02 0.02 0.02 83 1005.3
20260510073036 49 106 5.0 12.0 0.02 0.02 0.02 82 1005.4
20260510071537 50 155 3.0 11.0 0.01 0.01 0.01 80 1005.4
20260510070035 51 140 4.0 14.0 0.00 0.00 0.00 75 1005.8
20260510064538 51 148 5.0 10.0 0.00 0.00 0.00 73 1005.6
20260510063037 51 124 3.0 12.0 0.00 0.00 0.00 73 1005.7
20260510061536 51 130 4.0 12.0 0.00 0.00 0.00 73 1005.9
20260510060038 51 114 3.0 8.0 0.00 0.00 0.00 72 1005.8
20260510054535 50 107 4.0 10.0 0.00 0.00 0.00 72 1006.1
20260510053035 50 111 4.0 12.0 0.00 0.00 0.00 71 1006.4
20260510051532 50 159 4.0 10.0 0.00 0.00 0.00 71 1006.4
20260510050039 50 138 4.0 12.0 0.00 0.00 0.00 70 1006.4
20260510044551 51 127 3.0 9.0 0.00 0.00 0.00 69 1006.4
20260510043035 51 175 4.0 9.0 0.00 0.00 0.00 68 1006.6
20260510041532 51 135 3.0 11.0 0.00 0.00 0.00 67 1006.8
20260510040038 51 119 3.0 14.0 0.00 0.00 0.00 67 1006.8
20260510034536 52 174 7.0 15.0 0.00 0.00 0.00 66 1006.8
20260510033035 52 105 4.0 16.0 0.00 0.00 0.00 66 1007.0
20260510031538 52 135 6.0 12.0 0.00 0.00 0.00 65 1007.3
20260510030038 52 153 3.0 9.0 0.00 0.00 0.00 67 1007.5
20260510024536 52 153 3.0 7.0 0.00 0.00 0.00 67 1007.4
20260510023032 52 143 2.0 8.0 0.00 0.00 0.00 67 1007.7
20260510021535 52 158 3.0 9.0 0.00 0.00 0.00 67 1007.6
20260510020035 52 115 2.0 12.0 0.00 0.00 0.00 66 1007.8
20260510014533 52 128 7.0 13.0 0.00 0.00 0.00 66 1007.8
20260510013036 53 127 4.0 11.0 0.00 0.00 0.00 64 1008.1
20260510011536 53 107 4.0 10.0 0.00 0.00 0.00 63 1007.9
20260510010036 54 163 2.0 11.0 0.00 0.00 0.00 62 1007.9
20260510004536 54 115 6.0 13.0 0.00 0.00 0.00 60 1007.7
20260510003035 55 116 6.0 12.0 0.00 0.00 0.00 57 1007.5
20260510001532 56 132 4.0 12.0 0.00 0.00 0.00 54 1007.3
20260510000038 58 144 5.0 15.0 0.00 0.00 0.00 49 1007.3
20260509234536 59 161 5.0 15.0 0.00 0.00 0.00 44 1007.1
20260509233037 60 173 7.0 18.0 0.00 0.00 0.00 40 1007.1
20260509231535 61 182 5.0 18.0 0.00 0.00 0.00 36 1007.2
20260509230032 62 132 7.0 19.0 0.00 0.00 0.00 33 1007.1